Location: Caoba
(9.7667°N, 67.4833°W)
Time: 03:41:59
(UTC+00:00)

Sakura Rocket - Pass Details

Date: 08 September 2024
Orbit: 475 x 1709 km, 28.7° (Epoch: 09 October)

Event Time Altitude Azimuth Distance (km) Brightness Sun altitude
Rises 23:28:53 0° 295° (WNW) 4,513 9.0 -14.2°
Reaches altitude 10° 23:32:20 10° 293° (WNW) 3,355 8.1 -15.0°
Maximum altitude 23:40:33 67° 212° (SSW) 1,122 4.4 -17.0°
Enters shadow 23:44:37 22° 135° (SE) 1,838 5.0 -18.0°
